Weather History for West Palm Beach, FL

Change the Weather History Date:

Friday, April 4, 2014

  Actual Average Record
Temperature  
Mean Temperature 77 °F 72 °F  
Max Temperature 83 °F 80 °F 92 °F (1949)
Min Temperature 71 °F 64 °F 41 °F (1915)
Degree Days  
Heating Degree Days 0 0  
Month to date heating degree days 0 0  
Since 1 July heating degree days 122 229  
Cooling Degree Days 12 8  
Month to date cooling degree days 29 29  
Year to date cooling degree days 577 457  
Growing Degree Days 26 (Base 50)    
Moisture  
Dew Point 62 °F    
Average Humidity 60    
Maximum Humidity 73    
Minimum Humidity 47    
Precipitation  
Precipitation 0.00 in 0.14 in 1.67 in (1898)
Month to date precipitation 0.00 0.58  
Year to date precipitation 13.88 11.12  
Snow  
Snow 0.00 in - - ()
Month to date snowfall 0.0  
Since 1 July snowfall 0.0  
Snow Depth 0.00 in    
Sea Level Pressure  
Sea Level Pressure 30.04 in    
Wind  
Wind Speed 11 mph (SE)    
Max Wind Speed 21 mph    
Max Gust Speed 25 mph    
Visibility 10 miles    
Events      
T = Trace of Precipitation, MM = Missing Value Source: NWS Daily Summary

Daily Weather History Graph

Daily Weather History Graph

Search for Another Location

Airport:

Trip Planner

Search our weather history database for the weather conditions in past years. The results will help you decide how hot, cold, wet, or windy it might be!

Date:

Astronomy

Apr. 04, 2014 Rise Set
Actual Time 7:08 AM EDT 7:39 PM EDT
Civil Twilight 6:44 AM EDT 8:02 PM EDT
Nautical Twilight 6:17 AM EDT 8:29 PM EDT
Astronomical Twilight 5:49 AM EDT 8:57 PM EDT
Moon 10:43 AM EDT (4/4) No Moon Set
Length of Visible Light 13h 17m
Length of Day
12h 31m
Waxing Crescent, 25% of the Moon is Illuminated
Apr 4
Waxing Crescent
Apr 7
First Quarter
Apr 15
Full
Apr 22
Last Quarter
Apr 29
New

Hourly Weather History & Observations

Time (EDT) Temp. Heat Index Dew Point Humidity Pressure Visibility Wind Dir Wind Speed Gust Speed Precip Events Conditions
12:53 AM 73.0 °F - 61.0 °F 66% 30.09 in 10.0 mi SE 5.8 mph - N/A   Scattered Clouds
1:53 AM 72.0 °F - 62.1 °F 71% 30.06 in 10.0 mi SE 8.1 mph - N/A   Scattered Clouds
2:53 AM 72.0 °F - 62.1 °F 71% 30.04 in 10.0 mi SE 6.9 mph - N/A   Partly Cloudy
3:53 AM 72.0 °F - 62.1 °F 71% 30.02 in 10.0 mi SE 9.2 mph - N/A   Scattered Clouds
4:53 AM 71.1 °F - 62.1 °F 73% 30.02 in 10.0 mi SE 5.8 mph - N/A   Scattered Clouds
5:53 AM 72.0 °F - 63.0 °F 73% 30.01 in 10.0 mi SE 10.4 mph - N/A   Scattered Clouds
6:53 AM 73.9 °F - 63.0 °F 68% 30.02 in 10.0 mi SSE 10.4 mph - N/A   Mostly Cloudy
7:53 AM 75.0 °F - 63.0 °F 66% 30.03 in 10.0 mi SE 11.5 mph - N/A   Mostly Cloudy
8:53 AM 77.0 °F - 64.0 °F 64% 30.05 in 10.0 mi SSE 12.7 mph - N/A   Mostly Cloudy
9:53 AM 78.1 °F - 60.1 °F 54% 30.07 in 10.0 mi SSE 15.0 mph 21.9 mph N/A   Mostly Cloudy
10:53 AM 80.1 °F 80.7 °F 59.0 °F 48% 30.07 in 10.0 mi SSE 16.1 mph 21.9 mph N/A   Mostly Cloudy
11:53 AM 81.0 °F 82.2 °F 63.0 °F 54% 30.07 in 10.0 mi SSE 12.7 mph 21.9 mph N/A   Mostly Cloudy
12:53 PM 81.0 °F 81.9 °F 62.1 °F 52% 30.06 in 10.0 mi South 13.8 mph - N/A   Overcast
1:53 PM 82.0 °F 82.7 °F 61.0 °F 49% 30.05 in 10.0 mi SE 17.3 mph 25.3 mph N/A   Overcast
2:53 PM 82.9 °F 83.7 °F 62.1 °F 49% 30.03 in 10.0 mi SSE 15.0 mph 20.7 mph N/A   Mostly Cloudy
3:53 PM 82.0 °F 83.0 °F 62.1 °F 51% 30.02 in 10.0 mi SE 16.1 mph - N/A   Mostly Cloudy
4:53 PM 80.1 °F 81.1 °F 61.0 °F 52% 30.01 in 10.0 mi SE 16.1 mph - N/A   Mostly Cloudy
5:53 PM 79.0 °F - 61.0 °F 54% 30.01 in 10.0 mi SSE 15.0 mph - N/A   Mostly Cloudy
6:53 PM 78.1 °F - 62.1 °F 58% 30.01 in 10.0 mi SE 13.8 mph - N/A   Scattered Clouds
7:53 PM 75.9 °F - 63.0 °F 64% 30.01 in 10.0 mi SE 10.4 mph - N/A   Scattered Clouds
8:53 PM 75.9 °F - 62.1 °F 62% 30.02 in 10.0 mi SSE 8.1 mph - N/A   Clear
9:53 PM 75.0 °F - 62.1 °F 64% 30.04 in 10.0 mi SE 8.1 mph - N/A   Partly Cloudy
10:53 PM 75.0 °F - 63.0 °F 66% 30.04 in 10.0 mi SE 8.1 mph - N/A   Partly Cloudy
11:53 PM 73.9 °F - 64.0 °F 71% 30.04 in 10.0 mi SSE 6.9 mph - N/A   Partly Cloudy